Accueil
METAR-TAF:

METAR-TAF

Aéroports :

Aérodrome de Melun-Villaroche

Melun, France

latitude: 48-37N, longitude: 002-41E, altitude: 95 m

Observation

Le bulletin a été fait il y a 38 minutes, à 07:00 UTC
Vent 8 kt de sud-ouest
Température 0°C
Humidité 100%
Pression 995 hPa
Visibilité: 5000 m
Nuages fragmentés à une hauteur de 300 ft
Nuages fragmentés à une hauteur de 5400 ft
Ciel couvert à une hauteur de 16000 ft
brume

METAR: LFPM 230700Z AUTO 23008KT 5000 BR BKN003 BKN054 OVC160 00/00 Q0995

Heure: 08:38 (07:38 UTC)


TAF: absent

Observations et prévisions météorologiques de plus de 4000 aéroports (messages METAR et TAF).

Les stations disponibles sont représentées par des disques jaunes et rouges sur la carte.

Passer la souris dessus pour voir le nom de la station.

Cliquer dessus pour voir les observations et prévisions météorologiques.

Pour changer de carte: cliquez sur les boutons verts avec une croix noire pour zoomer, sur le bouton vert avec un tiret pour effectuer un zoom arrière, ou sur les flèches vertes pour les cartes adjacentes.


METAR-TAF: